EHI
0 0 0 0 0 0 0 0 0 0 0 0 0 0 0 0 0 0 0 0 0 0 0 0 0 0 0 0 0 0 0 0 0 0 0 0 0 0 0 0 0 0 0
0 0 0 0 0 0 0 0 0 0 0 0 0 0 0 0 0 0 0 0 0 0 0 0 0 0 0 0 0 0 0 0 0 0 0 0 0 0 0 0 0 0 0
0 0 0 0 0 0 0 0 0 0 0 0 0 0 0 0 0 0 0 0 0 0 0 0 0 0 0 0 0 0 0 0 0 0 0 0 0 0 0 0 0 0 0
0 0 0 0 0 0 0 0 0 0 0 0 0 0 0 0 0 0 0 0 0 0 0 0 0 0 0 0 0 0 0 0 0 0 0 0 0 0 0 0 0 0 0
0 0 0 0 0 0 0 0 0 0 0 0 0 0 0 0 0 0 0 0 0 0 0 0 0 0 0 0 0 0 0 0 0 0 0 0 0 0 0 0 0 0 0
0 0 0 0 0 0 0 0 0 0 0 0 0 0 0 0 0 0 0 0 0 0 0 0 0 0 0 0 0 0 0 0 0 0 0 0 0 0 0 0 0 0 0
0 0 0 0 0 0 0 0 0 0 0 0 0 0 0 0 0 0 0 0 0 0 0 0 0 0 0 0 0 0 0 0 0 0 0 0 0 0 0 0 0 0 0
0 0 0 0 0 0 0 0 0 0 0 0 0 0 0 0 0 0 0 0 0 0 0 0 0 0 0 0 0 0 0 0 0 0 0 0 0 0 0 0 0 0 0
0 0 0 0 0 0 0 0 0 0 0 0 0 0 0 0 0 0 0 0 0 0 0 0 0 0 0 0 0 0 0 0 0 0 0 0 0 0 0 0 0 0 0
0 0 0 0 0 0 0 0 0 0 0 0 0 0 0 0 0 0 0 0 0 0 0 0 0 0 0 0 0 0 0 0 0 0 0 0 0 0 0 0 0 0 0
0 0 0 0 0 0 0 0 0 0 0 0 0 0 0 0 0 0 0 0 0 0 0 0 0 0 0 0 0 0 0 0 0 0 0 0 0 0 0 0 0 0 0
0 0 0 0 0 0 0 0 0 0 0 0 0 0 0 0 0 0 0 0 0 0 0 0 0 0 0 0 0 0 0 0 0 0 0 0 0 0 0 0 0 0 0
0 0 0 0 0 0 0 0 0 0 0 0 0 0 0 0 0 0 0 0 0 0 0 0 0 0 0 0 0 0 0 0 0 0 0 0 0 0 0 0 0 0 0
0 0 0 0 0 0 0 0 0 0 0 0 0 0 0 0 0 0 0 0 0 0 0 0 0 0 0 0 0 0 0 0 0 0 0 0 0 0 0 0 0 0 0
0 0 0 0 0 0 0 0 0 0 0 0 0 0 0 0 0 0 0 0 0 0 0 0 0 0 0 0 0 0 0 0 0 0 0 0 0 0 0 0 0 0 0
0 0 0 0 0 0 0 0 0 0 0 0 0 0 0 0 0 0 0 0 0 0 0 0 0 0 0 0 0 0 0 0 0 0 0 0 0 0 0 0 0 0 0
0 0 0 0 0 0 0 0 0 0 0 0 0 0 0 0 0 0 0 0 0 0 0 0 0 0 0 0 0 0 0 0 0 0 0 0 0 0 0 0 0 0 0
0 0 0 0 0 0 0 0 0 0 0 0 0 0 0 0 0 0 0 0 0 0 0 0 0 0 0 0 0 0 0 0 0 0 0 0 0 0 0 0 0 0 0
0 0 0 0 0 0 0 0 0 0 0 0 0 0 0 0 0 0 0 0 0 0 0 0 0 0 0 0 0 0 0 0 0 0 0 0 0 0 0 0 0 0 0
0 0 0 0 0 0 0 0 0 0 0 0 0 0 0 0 0 0 0 0 0 0 0 0 0 0 0 0 0 0 0 0 0 0 0 0 0 0 0 0 0 0 0
0 0 0 0 0 0 0 0 0 0 0 0 0 0 0 0 0 0 0 0 0 0 0 0 0 0 0 0 0 0 0 0 0 0 0 0 0 0 0 0 0 0 0
0 0 0 0 0 0 0 0 0 0 0 0 0 0 0 0 0 0 0 0 0 0 0 0 0 0 0 0 0 0 0 0 0 0 0 0 0 0 0 0 0 0 0
0 0 0 0 0 0 0 0 0 0 0 0 0 0 0 0 0 0 0 0 0 0 0 0 0 0 0 0 0 0 0 0 0 0 0 0 0 0 0 0 0 0 0
0 0 0 0 0 0 0 0 0 0 0 0 0 0 0 0 0 0 0 0 0 0 0 0 0 0 0 0 0 0 0 0 0 0 0 0 0 0 0 0 0 0 0
0 0 0 0 0 0 0 0 0 0 0 0 0 0 0 0 0 0 0 0 0 0 0 0 0 0 0 0 0 0 0 0 0 0 0 0 0 0 0 0 0 0 0
0 0 0 0 0 0 0 0 0 0 0 0 0 0 0 0 0 0 0 0 0 0 0 0 0 0 0 0 0 0 0 0 0 0 0 0 0 0 0 0 0 0 0
Wind_Speed
4 4 4 4 4 4 4 5 4 4 4 4 4 4 4 4 3 3 3 3 4 3 3 3 4 3 2 2 2 2 3 3 5 4 2 2 2 3 3 2 3 3 4
4 3 3 3 3 3 3 3 3 4 4 4 4 4 4 3 3 4 4 4 4 4 4 3 4 3 3 2 2 3 3 3 4 6 4 3 3 3 2 3 3 3 4
3 3 3 3 3 3 3 3 3 3 3 3 4 4 4 4 4 4 4 4 4 4 4 4 4 4 4 3 3 3 3 3 3 4 4 3 2 2 2 3 4 3 4
2 2 3 3 4 3 3 3 3 3 3 3 4 4 4 4 4 4 4 4 4 4 4 4 4 5 5 5 4 4 3 3 2 3 4 3 3 2 2 3 4 3 4
2 2 3 2 2 2 2 3 3 3 3 3 3 3 3 4 4 4 4 4 4 3 3 4 4 5 5 4 3 3 3 3 3 3 4 3 3 2 3 2 5 5 5
2 2 1 1 1 1 2 2 2 2 2 2 3 3 4 3 4 5 4 3 3 4 4 3 3 4 5 6 5 5 4 4 4 4 4 5 5 4 3 3 4 4 5
1 1 1 1 2 2 1 2 2 3 2 3 3 3 3 4 5 5 5 3 4 4 4 3 3 3 4 4 5 6 5 6 6 4 5 6 5 4 4 4 5 5 7
1 1 1 2 2 1 2 2 3 2 3 3 3 4 4 4 5 5 5 4 4 4 4 4 4 4 4 4 4 4 4 5 5 5 5 5 4 4 4 5 6 6 6
2 2 2 2 3 2 3 3 3 3 3 3 3 3 4 4 5 6 5 3 3 4 4 4 4 4 5 6 4 4 5 5 5 6 7 7 7 7 4 2 2 3 5
3 3 3 3 3 4 4 3 2 3 3 3 3 3 4 4 6 6 5 3 3 3 3 4 5 5 6 6 4 4 5 5 3 3 4 6 5 5 5 3 3 3 4
3 2 2 3 3 3 3 2 2 2 2 3 4 4 4 4 6 7 7 3 3 3 3 3 3 6 6 7 5 4 6 4 2 3 3 3 3 3 4 4 4 4 5
2 2 3 3 2 2 2 2 2 2 3 3 3 4 3 3 4 6 8 7 5 4 4 3 4 6 7 7 5 6 6 3 1 2 3 4 4 4 4 4 5 6 7
2 3 3 2 2 2 2 2 2 2 3 3 3 4 4 3 4 7 7 8 7 4 3 5 5 6 6 5 6 6 4 2 2 3 5 5 4 4 3 3 4 5 7
3 3 2 2 2 2 2 2 3 3 3 3 4 4 3 3 3 3 3 4 5 5 4 4 5 6 5 4 3 4 3 3 3 4 5 4 3 3 3 3 4 4 4
3 2 2 2 2 2 3 3 4 4 4 5 4 4 4 5 5 6 4 3 3 3 1 1 1 2 2 2 2 3 2 2 4 4 4 4 4 4 4 3 3 3 4
3 3 2 2 2 2 3 3 5 5 6 7 7 5 5 6 6 7 8 7 6 4 2 2 3 3 3 3 4 4 4 4 4 4 4 4 4 4 4 3 3 4 5
4 4 3 3 3 3 3 3 4 4 6 7 8 8 8 7 7 7 7 6 5 4 3 3 4 4 4 4 4 4 4 4 4 4 5 5 4 4 4 4 4 4 5
4 4 3 3 3 3 3 4 3 3 4 4 6 8 9 9 8 7 6 4 3 3 3 4 4 4 4 4 4 4 4 3 3 4 4 5 5 4 4 5 5 5 5
4 3 3 3 3 3 3 3 3 4 4 4 3 4 6 7 7 6 5 3 4 4 4 4 5 4 4 4 4 4 4 4 4 4 4 5 4 4 5 5 5 6 5
4 4 3 3 3 3 3 3 4 4 4 4 4 4 2 2 3 4 4 4 4 5 5 5 5 5 4 4 4 4 4 5 5 5 5 5 4 4 6 6 5 5 5
3 3 4 3 3 3 3 4 4 4 4 5 4 4 5 4 4 4 4 5 5 5 5 5 5 4 4 4 4 4 5 5 5 5 5 5 4 5 5 5 5 5 5
3 3 3 3 3 3 3 3 4 4 4 5 4 4 6 4 4 4 5 5 5 4 4 4 4 4 4 4 4 5 5 5 5 5 5 5 5 5 4 4 5 5 5
2 3 3 3 3 4 4 3 4 4 4 4 4 4 4 4 4 5 5 5 4 4 4 4 5 5 4 4 5 5 6 7 6 5 5 5 5 5 5 5 6 6 6
3 3 3 3 3 3 4 4 4 4 4 4 4 4 5 4 5 5 5 4 4 4 4 4 5 7 8 6 5 6 7 7 6 6 7 7 6 6 5 6 6 7 7
3 3 3 3 3 3 3 4 4 4 4 4 4 4 4 4 5 5 4 4 5 5 6 5 5 6 8 9 8 8 9 10 9 7 6 6 7 7 7 7 6 6 6
3 3 3 3 3 3 3 4 4 4 4 4 4 4 4 5 5 5 4 4 5 5 5 5 7 8 9 8 9 10 11 11 10 9 7 6 7 7 7 6 7 7 7
Wind_Direction
199 201 197 199 200 200 202 207 207 204 198 198 199 197 200 202 200 199 206 206 213 226 224 221 232 224 220 226 224 227 229 218 249 271 262 257 244 266 291 282 274 278 289
198 192 195 194 190 195 205 209 200 199 198 198 195 197 201 203 203 203 209 212 217 224 226 222 233 222 221 224 223 230 234 225 233 262 270 263 250 259 278 286 293 294 286
184 183 193 195 191 200 210 209 199 200 201 198 195 201 206 207 210 214 213 218 222 226 224 221 227 216 226 229 227 231 237 241 238 250 271 271 268 280 294 294 290 284 289
178 185 202 207 203 204 205 202 204 203 202 207 208 211 213 213 214 216 218 221 224 229 229 226 223 220 224 223 226 228 231 237 241 251 266 276 277 287 291 289 297 289 289
170 193 220 216 201 193 199 205 206 207 211 212 212 215 216 218 219 215 217 220 221 229 234 232 230 228 228 228 229 224 221 229 234 246 260 270 270 280 277 279 283 298 286
188 219 225 187 175 194 205 201 200 209 217 208 214 217 220 226 230 222 215 218 220 224 234 239 238 225 228 231 235 235 228 228 229 234 247 253 264 264 267 270 279 295 288
209 241 227 207 207 214 206 198 208 213 209 212 222 226 237 243 237 231 226 224 225 228 231 233 240 240 231 231 232 237 244 248 239 233 241 250 259 253 252 263 264 264 266
258 263 256 224 227 222 213 225 230 223 218 224 229 230 239 249 243 239 234 225 228 232 234 233 234 235 233 225 218 230 243 248 249 244 243 251 253 249 239 246 256 269 276
272 272 265 233 221 215 223 235 236 229 230 232 235 235 241 249 241 238 230 229 232 238 240 239 237 237 240 231 222 234 251 259 262 257 261 265 267 269 269 261 259 269 274
260 263 260 240 226 227 232 235 239 234 236 236 241 239 242 251 249 240 229 226 235 243 245 241 238 238 244 234 226 228 244 255 251 265 268 274 272 271 264 237 229 242 263
275 274 260 243 235 237 243 244 242 239 241 240 248 250 244 246 250 243 233 227 233 238 242 244 243 241 246 244 239 230 246 258 238 242 256 264 268 263 256 246 238 234 239
282 262 256 247 235 225 228 244 242 231 238 247 253 261 253 249 246 248 244 240 242 240 244 247 249 250 250 250 248 254 264 265 244 253 257 259 262 263 263 260 254 249 246
275 262 263 257 242 227 215 224 228 227 234 245 246 254 261 255 253 252 251 251 248 247 254 257 261 259 257 251 250 256 252 226 233 249 256 260 261 264 268 271 266 260 259
257 262 262 248 253 248 229 219 218 220 229 239 243 249 259 257 248 247 247 250 250 252 259 259 255 257 255 259 258 249 234 227 231 246 258 265 272 267 260 261 269 276 275
259 261 257 243 237 242 239 233 231 228 224 230 237 237 241 251 248 243 238 239 238 240 256 272 263 261 249 257 259 254 242 235 241 249 253 260 264 265 265 260 257 264 264
255 255 247 242 237 235 244 265 257 254 256 251 252 250 253 255 263 247 242 244 242 234 206 235 241 245 248 252 255 258 248 243 243 246 250 251 254 258 265 264 253 251 263
248 251 251 244 239 237 237 244 266 271 259 256 257 258 259 262 260 253 247 242 237 212 210 232 240 241 245 247 247 249 255 259 254 248 251 253 252 255 257 259 257 259 265
252 248 246 245 242 239 238 241 242 247 262 267 264 261 263 263 262 258 249 234 236 227 230 236 243 245 245 246 248 251 258 262 258 256 256 255 248 248 254 256 254 255 265
256 249 245 248 245 243 243 243 244 243 250 265 279 272 264 264 261 257 240 221 227 233 236 241 244 247 249 248 247 248 249 253 257 257 257 258 255 247 250 254 256 259 259
263 260 251 245 243 240 237 237 240 244 247 251 253 258 254 243 243 244 232 230 235 240 240 243 245 244 244 246 248 249 251 252 253 253 256 256 256 254 254 253 251 253 255
266 265 249 241 238 235 235 236 238 241 246 251 255 255 250 240 242 244 241 237 238 243 245 246 247 246 245 246 248 250 253 257 256 257 258 259 257 258 259 259 258 254 257
260 260 254 247 245 241 242 242 242 245 249 254 265 263 254 249 249 251 250 249 247 246 245 244 249 249 245 245 247 251 254 256 255 255 261 263 259 259 260 257 259 263 260
263 263 261 256 249 246 244 240 240 243 247 251 255 256 249 246 249 252 255 257 257 256 252 246 249 255 252 246 242 242 248 252 252 250 254 258 258 254 252 252 252 257 260
262 257 257 257 252 247 247 247 243 245 248 251 253 255 254 251 251 254 257 261 262 260 255 251 250 252 254 254 251 247 249 253 249 244 241 247 252 256 254 254 254 254 256
263 259 257 254 253 253 254 253 251 249 249 251 252 255 259 262 261 259 259 259 259 260 260 258 257 256 255 256 258 257 259 261 258 247 238 239 243 247 251 254 254 257 258
264 260 259 257 252 250 250 255 257 257 258 258 258 258 259 261 265 264 261 259 261 264 264 261 260 262 263 262 260 263 263 263 259 249 238 238 240 244 248 253 253 254 256